LBT797 LFRS-DTTJ

Flight info

Callsign LBT797
Flight time N/A
Altitude 25000
Route LUGEN UM184 TUPAR/N0400F230 DCT CNA DCT SECHE/N0447F370 DCT SOVET DCT FJR DCT DIVKO DCT JUSQO DCT FIRRA DCT NAFOQ DCT SALMA UG6 DIMAO UZ147 KIRAS A856 TINAP
Aircraft A20N/M-SDE2E3FGHIRWXY/LB1

Departure

Time N/A
Airport Nantes Atlantique Airport (LFRS)

Arrival

Time 2026-04-24 12:19
Airport Djerba Zarzis International Airport (DTTJ)
Time Latitude Longitude Altitude Speed Heading
2026-04-24 10:51 43.22639 4.51775 35146 ft 462 kts 129°
2026-04-24 10:52 43.20477 4.55083 35144 ft 461 kts 129°
2026-04-24 10:52 43.16209 4.61600 35146 ft 461 kts 129°
2026-04-24 10:53 43.11945 4.68086 35146 ft 461 kts 131°
2026-04-24 10:53 43.07368 4.73840 35147 ft 464 kts 141°
2026-04-24 10:54 43.01942 4.78623 35149 ft 468 kts 151°
2026-04-24 10:54 42.96033 4.82035 35152 ft 470 kts 161°
2026-04-24 10:55 42.89941 4.84717 35151 ft 470 kts 161°
2026-04-24 10:55 42.83643 4.87482 35150 ft 470 kts 161°
2026-04-24 10:56 42.77418 4.90244 35151 ft 471 kts 161°
2026-04-24 10:56 42.71148 4.92778 35150 ft 473 kts 166°
2026-04-24 10:57 42.64756 4.94811 35150 ft 472 kts 166°
2026-04-24 10:57 42.58346 4.96837 35151 ft 472 kts 166°
2026-04-24 10:58 42.51979 4.98850 35151 ft 473 kts 166°
2026-04-24 10:58 42.45565 5.00875 35149 ft 474 kts 166°
2026-04-24 10:59 42.39138 5.02899 35149 ft 476 kts 166°
2026-04-24 10:59 42.32684 5.04932 35152 ft 476 kts 166°
2026-04-24 11:00 42.26236 5.06956 35151 ft 477 kts 166°
2026-04-24 11:00 42.19781 5.08977 35151 ft 478 kts 166°
2026-04-24 11:01 42.13307 5.10999 35147 ft 479 kts 166°
2026-04-24 11:01 42.06831 5.13020 35151 ft 478 kts 166°
2026-04-24 11:02 42.00349 5.15037 35144 ft 478 kts 166°
2026-04-24 11:02 41.93890 5.17043 35148 ft 478 kts 166°
2026-04-24 11:03 41.87464 5.19034 35147 ft 479 kts 166°
2026-04-24 11:03 41.80964 5.21043 35149 ft 479 kts 166°
2026-04-24 11:04 41.74475 5.23047 35145 ft 479 kts 167°
2026-04-24 11:04 41.67972 5.25049 35152 ft 479 kts 166°
2026-04-24 11:05 41.61607 5.27495 35149 ft 479 kts 160°
2026-04-24 11:05 41.55356 5.30515 35147 ft 479 kts 159°
2026-04-24 11:06 41.49086 5.33547 35148 ft 479 kts 159°
2026-04-24 11:06 41.42853 5.36548 35151 ft 480 kts 159°
2026-04-24 11:07 41.33444 5.41058 35148 ft 480 kts 159°
2026-04-24 11:07 41.27162 5.44059 35151 ft 480 kts 159°
2026-04-24 11:08 41.20906 5.47044 35150 ft 480 kts 159°
2026-04-24 11:08 41.14617 5.50036 35151 ft 481 kts 159°
2026-04-24 11:09 41.08301 5.53037 35150 ft 482 kts 160°
2026-04-24 11:09 41.02015 5.56018 35146 ft 482 kts 160°
2026-04-24 11:10 40.95696 5.59007 35154 ft 483 kts 160°
2026-04-24 11:10 40.89397 5.61979 35153 ft 483 kts 160°
2026-04-24 11:11 40.83048 5.64972 35150 ft 484 kts 160°
2026-04-24 11:11 40.76689 5.67961 35151 ft 484 kts 160°
2026-04-24 11:12 40.70367 5.70927 35148 ft 484 kts 160°
2026-04-24 11:12 40.64042 5.73887 35153 ft 484 kts 160°
2026-04-24 11:13 40.57676 5.76864 35147 ft 485 kts 160°
2026-04-24 11:13 40.51345 5.79816 35151 ft 485 kts 161°
2026-04-24 11:14 40.45003 5.82829 35151 ft 485 kts 158°
2026-04-24 11:14 40.38869 5.86478 35151 ft 485 kts 154°
2026-04-24 11:15 40.32783 5.90308 35153 ft 486 kts 154°
2026-04-24 11:15 40.26703 5.94119 35149 ft 486 kts 154°
2026-04-24 11:16 40.20621 5.97920 35152 ft 486 kts 154°
2026-04-24 11:16 40.14502 6.01734 35153 ft 487 kts 154°
2026-04-24 11:17 40.08385 6.05536 35149 ft 487 kts 154°
2026-04-24 11:17 40.02306 6.09308 35152 ft 487 kts 154°
2026-04-24 11:18 39.96158 6.13114 35151 ft 488 kts 154°
2026-04-24 11:18 39.90050 6.16888 35140 ft 488 kts 154°
2026-04-24 11:19 39.83951 6.20647 35141 ft 488 kts 154°
2026-04-24 11:19 39.77830 6.24415 35139 ft 488 kts 154°
2026-04-24 11:20 39.71667 6.28203 35137 ft 488 kts 154°
2026-04-24 11:20 39.65548 6.31954 35166 ft 488 kts 154°
2026-04-24 11:21 39.59403 6.35715 35136 ft 488 kts 154°
2026-04-24 11:21 39.53298 6.39442 35129 ft 488 kts 154°
2026-04-24 11:22 39.47140 6.43194 35123 ft 488 kts 154°
2026-04-24 11:22 39.40998 6.46931 35122 ft 488 kts 154°
2026-04-24 11:23 39.34872 6.50649 35125 ft 488 kts 154°
2026-04-24 11:23 39.28743 6.54363 35121 ft 489 kts 155°
2026-04-24 11:24 39.22594 6.58081 35124 ft 490 kts 155°
2026-04-24 11:24 39.16447 6.61791 35122 ft 491 kts 155°
2026-04-24 11:25 39.10269 6.65512 35121 ft 490 kts 155°
2026-04-24 11:25 39.04097 6.69222 35122 ft 490 kts 155°
2026-04-24 11:26 38.97845 6.72820 35124 ft 490 kts 158°
2026-04-24 11:26 38.91511 6.76131 35126 ft 491 kts 159°
2026-04-24 11:27 38.85195 6.79415 35123 ft 491 kts 159°
2026-04-24 11:27 38.78872 6.82702 35121 ft 491 kts 159°
2026-04-24 11:28 38.72542 6.85988 35120 ft 491 kts 159°
2026-04-24 11:28 38.66232 6.89257 35118 ft 491 kts 159°
2026-04-24 11:29 38.59884 6.92541 35113 ft 491 kts 159°
2026-04-24 11:29 38.53554 6.95808 35119 ft 491 kts 159°
2026-04-24 11:30 38.47235 6.99065 34985 ft 491 kts 159°
2026-04-24 11:30 38.40908 7.02319 35090 ft 492 kts 159°
2026-04-24 11:31 38.34571 7.05572 35116 ft 491 kts 159°
2026-04-24 11:31 38.28209 7.08831 35114 ft 492 kts 159°
2026-04-24 11:32 38.21901 7.12057 35117 ft 491 kts 159°
2026-04-24 11:32 38.15582 7.15280 35115 ft 491 kts 159°
2026-04-24 11:33 38.09222 7.18522 35112 ft 490 kts 159°
2026-04-24 11:33 38.02900 7.21736 35113 ft 491 kts 159°
2026-04-24 11:34 37.96578 7.24945 35109 ft 491 kts 159°
2026-04-24 11:34 37.90232 7.28160 35108 ft 492 kts 159°
2026-04-24 11:35 37.83900 7.31363 35090 ft 491 kts 159°
2026-04-24 11:35 37.77540 7.34574 35195 ft 492 kts 159°
2026-04-24 11:36 37.74390 7.36162 35007 ft 491 kts 159°
2026-04-24 11:36 37.71207 7.37764 35057 ft 491 kts 159°
2026-04-24 11:36 37.64894 7.40937 35188 ft 491 kts 159°
2026-04-24 11:37 37.61705 7.42538 34989 ft 491 kts 159°
2026-04-24 11:37 37.58516 7.44139 35125 ft 492 kts 159°
2026-04-24 11:37 37.52152 7.47328 35087 ft 492 kts 159°
2026-04-24 11:38 37.45788 7.50511 35079 ft 492 kts 159°
2026-04-24 11:38 37.39402 7.53699 35081 ft 493 kts 159°
2026-04-24 11:39 37.33043 7.56867 35078 ft 492 kts 159°
2026-04-24 11:39 37.26702 7.60021 35074 ft 492 kts 160°
2026-04-24 11:40 37.20312 7.63191 35072 ft 491 kts 160°
2026-04-24 11:40 37.13968 7.66335 35065 ft 491 kts 160°
2026-04-24 11:41 37.07581 7.69493 35086 ft 491 kts 160°
2026-04-24 11:41 37.01258 7.72613 35068 ft 491 kts 160°
2026-04-24 11:42 36.94893 7.75750 35034 ft 492 kts 160°
2026-04-24 11:42 36.88595 7.79116 35055 ft 493 kts 154°
2026-04-24 11:43 36.82684 7.83542 35063 ft 496 kts 145°
2026-04-24 11:43 36.77378 7.89021 35107 ft 496 kts 135°
2026-04-24 11:44 36.74958 7.92094 34997 ft 496 kts 133°
2026-04-24 11:44 36.72580 7.95216 35038 ft 496 kts 133°
2026-04-24 11:44 36.67834 8.01444 35009 ft 496 kts 133°
2026-04-24 11:45 36.63053 8.07656 35059 ft 497 kts 133°
2026-04-24 11:45 36.58283 8.13819 35080 ft 497 kts 133°
2026-04-24 11:46 36.53456 8.20039 35092 ft 497 kts 133°
2026-04-24 11:46 36.51059 8.23124 35230 ft 497 kts 133°
2026-04-24 11:46 36.48676 8.26190 35040 ft 497 kts 133°
2026-04-24 11:47 36.43863 8.32357 35374 ft 495 kts 134°
2026-04-24 11:47 36.41374 8.35280 35710 ft 491 kts 138°
2026-04-24 11:47 36.38763 8.37984 35963 ft 489 kts 142°
2026-04-24 11:48 36.36044 8.40443 36157 ft 487 kts 146°
2026-04-24 11:48 36.33218 8.42787 36341 ft 487 kts 147°
2026-04-24 11:48 36.30413 8.45087 36523 ft 487 kts 147°
2026-04-24 11:48 36.27584 8.47406 36723 ft 486 kts 147°
2026-04-24 11:49 36.24768 8.49720 36928 ft 486 kts 147°
2026-04-24 11:49 36.21956 8.52034 37093 ft 486 kts 147°
2026-04-24 11:49 36.16330 8.56668 37089 ft 485 kts 147°
2026-04-24 11:50 36.10720 8.61288 37090 ft 486 kts 147°
2026-04-24 11:50 36.05079 8.65925 37091 ft 486 kts 147°
2026-04-24 11:51 35.99439 8.70557 37099 ft 486 kts 148°
2026-04-24 11:51 35.93789 8.75183 37097 ft 487 kts 148°
2026-04-24 11:52 35.88128 8.79810 37096 ft 487 kts 147°
2026-04-24 11:52 35.82464 8.84433 37101 ft 486 kts 147°
2026-04-24 11:53 35.76815 8.89037 37105 ft 487 kts 147°
2026-04-24 11:53 35.71151 8.93644 37105 ft 488 kts 147°
2026-04-24 11:54 35.65490 8.98241 36730 ft 488 kts 147°
2026-04-24 11:54 35.62641 9.00552 36422 ft 485 kts 147°
2026-04-24 11:54 35.59847 9.02815 36141 ft 482 kts 147°
2026-04-24 11:55 35.57070 9.05063 35905 ft 480 kts 147°
2026-04-24 11:55 35.54290 9.07302 35563 ft 481 kts 148°
2026-04-24 11:55 35.51448 9.09493 35077 ft 482 kts 149°
2026-04-24 11:55 35.48594 9.11643 34478 ft 484 kts 149°
2026-04-24 11:56 35.45712 9.13805 33782 ft 486 kts 149°
2026-04-24 11:56 35.42850 9.15953 33071 ft 488 kts 149°
2026-04-24 11:56 35.39948 9.18135 32365 ft 490 kts 149°
2026-04-24 11:56 35.37048 9.20318 31657 ft 491 kts 149°
2026-04-24 11:57 35.34162 9.22492 30941 ft 492 kts 149°
2026-04-24 11:57 35.31247 9.24688 30215 ft 494 kts 149°
2026-04-24 11:57 35.28328 9.26885 29462 ft 494 kts 149°
2026-04-24 11:57 35.25376 9.29104 28693 ft 495 kts 149°
2026-04-24 11:58 35.22441 9.31307 27914 ft 496 kts 148°
2026-04-24 11:58 35.19507 9.33507 27126 ft 497 kts 148°
2026-04-24 11:58 35.16568 9.35714 26319 ft 498 kts 148°
2026-04-24 11:58 35.13618 9.37924 25487 ft 499 kts 148°
2026-04-24 11:59 35.10672 9.40130 24861 ft 494 kts 148°
2026-04-24 11:59 35.07773 9.42302 24316 ft 488 kts 148°
2026-04-24 11:59 35.04911 9.44442 23797 ft 482 kts 148°
2026-04-24 11:59 35.02061 9.46570 23272 ft 477 kts 148°
2026-04-24 12:00 34.99223 9.48688 22739 ft 472 kts 148°
2026-04-24 12:00 34.96446 9.50757 22221 ft 468 kts 148°
2026-04-24 12:00 34.93689 9.52811 21707 ft 464 kts 148°
2026-04-24 12:00 34.90941 9.54857 21186 ft 459 kts 148°
2026-04-24 12:01 34.88253 9.56857 20664 ft 455 kts 147°
2026-04-24 12:01 34.85570 9.58852 20158 ft 451 kts 148°
2026-04-24 12:01 34.82890 9.60842 19633 ft 446 kts 147°
2026-04-24 12:01 34.80271 9.62786 19125 ft 442 kts 147°
2026-04-24 12:02 34.77646 9.64733 18595 ft 438 kts 147°
2026-04-24 12:02 34.75066 9.66646 18094 ft 434 kts 148°
2026-04-24 12:02 34.72454 9.68581 17575 ft 430 kts 148°
2026-04-24 12:02 34.69899 9.70472 17046 ft 426 kts 148°
2026-04-24 12:03 34.67382 9.72333 16536 ft 422 kts 148°
2026-04-24 12:03 34.64896 9.74170 16021 ft 418 kts 148°
2026-04-24 12:03 34.62425 9.75994 15534 ft 414 kts 148°
2026-04-24 12:03 34.59971 9.77804 15036 ft 411 kts 148°
2026-04-24 12:04 34.57532 9.79603 14539 ft 408 kts 148°
2026-04-24 12:04 34.55121 9.81379 14033 ft 406 kts 148°
2026-04-24 12:04 34.52732 9.83139 13531 ft 403 kts 148°
2026-04-24 12:04 34.50340 9.84899 13031 ft 401 kts 148°
2026-04-24 12:05 34.47953 9.86655 12532 ft 399 kts 148°
2026-04-24 12:05 34.45572 9.88405 12027 ft 397 kts 148°
2026-04-24 12:05 34.43235 9.90122 11513 ft 395 kts 148°
2026-04-24 12:05 34.41021 9.92032 11174 ft 386 kts 138°
2026-04-24 12:06 34.39161 9.94314 10956 ft 373 kts 128°
2026-04-24 12:06 34.37618 9.96738 10767 ft 361 kts 124°
2026-04-24 12:06 34.36155 9.99171 10585 ft 349 kts 124°
2026-04-24 12:06 34.34759 10.01503 10394 ft 340 kts 124°
2026-04-24 12:07 34.33388 10.03769 10256 ft 329 kts 124°
2026-04-24 12:07 34.32055 10.05945 10141 ft 318 kts 124°
2026-04-24 12:07 34.30754 10.08060 9941 ft 312 kts 124°
2026-04-24 12:07 34.29463 10.10159 9578 ft 312 kts 124°
2026-04-24 12:08 34.28162 10.12272 9227 ft 311 kts 124°
2026-04-24 12:08 34.26870 10.14364 8886 ft 310 kts 124°
2026-04-24 12:08 34.25590 10.16436 8547 ft 309 kts 124°
2026-04-24 12:08 34.24307 10.18510 8216 ft 307 kts 124°
2026-04-24 12:09 34.23038 10.20559 7888 ft 305 kts 124°
2026-04-24 12:09 34.21780 10.22592 7563 ft 302 kts 124°
2026-04-24 12:09 34.20518 10.24631 7241 ft 299 kts 124°
2026-04-24 12:09 34.19287 10.26616 6925 ft 296 kts 124°
2026-04-24 12:10 34.18046 10.28616 6620 ft 294 kts 124°
2026-04-24 12:10 34.16839 10.30561 6314 ft 291 kts 125°
2026-04-24 12:10 34.15622 10.32520 6002 ft 288 kts 125°
2026-04-24 12:11 34.13216 10.36314 5395 ft 283 kts 131°
2026-04-24 12:11 34.11726 10.37874 5090 ft 282 kts 144°
2026-04-24 12:11 34.10057 10.39106 4792 ft 280 kts 148°
2026-04-24 12:11 34.08375 10.40263 4491 ft 278 kts 148°
2026-04-24 12:12 34.06686 10.41419 4179 ft 275 kts 148°
2026-04-24 12:12 34.05032 10.42559 3870 ft 273 kts 148°
2026-04-24 12:12 34.03391 10.43699 3568 ft 271 kts 147°
2026-04-24 12:12 34.01759 10.44838 3262 ft 268 kts 147°
2026-04-24 12:13 34.00183 10.45939 3205 ft 254 kts 147°
2026-04-24 12:13 33.98698 10.46975 3188 ft 239 kts 147°
2026-04-24 12:13 33.97309 10.47947 3165 ft 228 kts 147°
2026-04-24 12:13 33.95915 10.48926 3110 ft 229 kts 147°
2026-04-24 12:14 33.94545 10.49888 2992 ft 229 kts 147°
2026-04-24 12:14 33.93166 10.50854 2858 ft 228 kts 147°
2026-04-24 12:14 33.91800 10.51810 2703 ft 228 kts 147°
2026-04-24 12:14 33.90411 10.52781 2351 ft 231 kts 147°
2026-04-24 12:15 33.89016 10.53755 2031 ft 232 kts 147°
2026-04-24 12:15 33.87740 10.54808 1716 ft 228 kts 128°
2026-04-24 12:15 33.87060 10.56476 1601 ft 210 kts 96°
2026-04-24 12:15 33.86984 10.58144 1594 ft 194 kts 85°
2026-04-24 12:16 33.87073 10.59783 1594 ft 194 kts 84°
2026-04-24 12:16 33.87159 10.61398 1594 ft 194 kts 85°
2026-04-24 12:16 33.87212 10.63018 1594 ft 194 kts 86°
2026-04-24 12:16 33.87246 10.64603 1717 ft 180 kts 86°
2026-04-24 12:17 33.87272 10.66021 1601 ft 162 kts 86°
2026-04-24 12:17 33.87298 10.67321 1417 ft 148 kts 86°
2026-04-24 12:17 33.87326 10.68560 1222 ft 146 kts 86°
2026-04-24 12:17 33.87353 10.69759 1038 ft 141 kts 86°
2026-04-24 12:18 33.87379 10.70903 836 ft 133 kts 85°
2026-04-24 12:18 33.87405 10.72019 668 ft 133 kts 85°
2026-04-24 12:18 33.87431 10.73115 504 ft 133 kts 84°
2026-04-24 12:18 33.87462 10.74225 342 ft 133 kts 84°
2026-04-24 12:19 33.87495 10.75332 154 ft 131 kts 86°
2026-04-24 12:19 33.87510 10.76427 37 ft 127 kts 85°
2026-04-24 12:19 33.87542 10.77379 22 ft 97 kts 86°
2026-04-24 12:19 33.87552 10.77990 22 ft 47 kts 89°
2026-04-24 12:20 33.87560 10.78309 22 ft 36 kts 88°
2026-04-24 12:20 33.87550 10.78565 22 ft 18 kts 124°
2026-04-24 12:20 33.87493 10.78598 22 ft 0 kts 178°
2026-04-24 12:21 33.87491 10.78598 22 ft 2 kts 178°
2026-04-24 12:21 33.87441 10.78593 22 ft 9 kts 202°
2026-04-24 12:21 33.87402 10.78529 22 ft 13 kts 261°
2026-04-24 12:21 33.87396 10.78406 22 ft 15 kts 268°
2026-04-24 12:22 33.87394 10.78277 22 ft 15 kts 269°
2026-04-24 12:22 33.87400 10.78145 22 ft 15 kts 271°
2026-04-24 12:22 33.87396 10.78013 22 ft 16 kts 268°
2026-04-24 12:22 33.87391 10.77874 22 ft 16 kts 268°
2026-04-24 12:23 33.87388 10.77733 22 ft 17 kts 269°
2026-04-24 12:23 33.87386 10.77591 22 ft 17 kts 269°
2026-04-24 12:23 33.87382 10.77445 22 ft 17 kts 268°
2026-04-24 12:23 33.87372 10.77319 22 ft 9 kts 249°
2026-04-24 12:24 33.87331 10.77271 22 ft 10 kts 162°
2026-04-24 12:24 33.87287 10.77328 22 ft 9 kts 130°
2026-04-24 12:24 33.87249 10.77377 22 ft 2 kts 132°
2026-04-24 12:24 33.87237 10.77392 22 ft 0 kts 133°